THURAYA-3

Last updated on Wed Sep 09 2026 00:02:58 GMT+0000 (Coordinated Universal Time)

1 32404U 08001A 26251.45773322 -.00000008 00000+0 00000+0 0 9998 2 32404 6.1295 35.8250 0002396 165.2122 14.9791 1.00272023 68327
UTC large
Height (km)
Speed (km/s)
/
Latitude / Longitude
Inclination (degrees)
Orbital Period (minutes)
Azimuth
Elevation
Range (km)
Doppler Factor

Next 0 passes for location: London (51.5072 / 0.1276)

No passes found over London.
THURAYA-3